EVA220 RCKH-RCTP

Flight info

Callsign EVA220
Flight time N/A
Altitude 19000
Route TNN2G TNN TNN1A
Aircraft B78X/H-SDE1E2E3FGHIJ2J3J4J5M1RWXY/LB1D1

Departure

Time 2026-04-25 10:54
Airport Kaohsiung International Airport (RCKH)

Arrival

Time N/A
Airport Taiwan Taoyuan International Airport (RCTP)
Time Latitude Longitude Altitude Speed Heading
2026-04-25 10:47 22.57286 120.33770 43 ft 0 kts
2026-04-25 10:50 22.57292 120.33770 43 ft 4 kts
2026-04-25 10:50 22.57344 120.33772 43 ft 11 kts
2026-04-25 10:50 22.57406 120.33745 44 ft 7 kts 307°
2026-04-25 10:50 22.57433 120.33695 44 ft 8 kts 300°
2026-04-25 10:51 22.57477 120.33632 44 ft 15 kts 313°
2026-04-25 10:51 22.57558 120.33549 44 ft 17 kts 317°
2026-04-25 10:51 22.57649 120.33501 44 ft 13 kts
2026-04-25 10:51 22.57732 120.33531 44 ft 12 kts 46°
2026-04-25 10:52 22.57750 120.33616 44 ft 12 kts 90°
2026-04-25 10:52 22.57749 120.33657 44 ft 0 kts 91°
2026-04-25 10:52 22.57749 120.33665 44 ft 2 kts 91°
2026-04-25 10:52 22.57748 120.33673 44 ft 0 kts 91°
2026-04-25 10:53 22.57747 120.33707 44 ft 13 kts 91°
2026-04-25 10:53 22.57737 120.34066 44 ft 90 kts 92°
2026-04-25 10:53 22.57705 120.35050 42 ft 169 kts 91°
2026-04-25 10:54 22.57558 120.36482 628 ft 207 kts 96°
2026-04-25 10:54 22.57516 120.37554 1450 ft 211 kts 90°
2026-04-25 10:54 22.56791 120.39299 3374 ft 198 kts 139°
2026-04-25 10:54 22.55470 120.39853 4083 ft 214 kts 172°
2026-04-25 10:55 22.53971 120.39629 4909 ft 223 kts 204°
2026-04-25 10:55 22.52650 120.38744 5929 ft 225 kts 217°
2026-04-25 10:55 22.51389 120.37769 6954 ft 225 kts 216°
2026-04-25 10:55 22.50073 120.36836 7935 ft 227 kts 214°
2026-04-25 10:56 22.48722 120.35919 8909 ft 230 kts 214°
2026-04-25 10:56 22.47365 120.34988 9881 ft 232 kts 216°
2026-04-25 10:56 22.46248 120.33753 10889 ft 230 kts 239°
2026-04-25 10:56 22.45704 120.32129 11903 ft 236 kts 261°
2026-04-25 10:57 22.45889 120.30296 12622 ft 260 kts 288°
2026-04-25 10:57 22.46690 120.28442 13274 ft 283 kts 292°
2026-04-25 10:57 22.47625 120.26473 13933 ft 305 kts 293°
2026-04-25 10:57 22.48624 120.24355 14500 ft 327 kts 292°
2026-04-25 10:58 22.49668 120.22081 15044 ft 348 kts 292°
2026-04-25 10:58 22.50950 120.19755 15563 ft 374 kts 307°
2026-04-25 10:58 22.52949 120.17858 16390 ft 392 kts 323°
2026-04-25 10:58 22.55495 120.16664 17273 ft 409 kts 342°
2026-04-25 10:59 22.58327 120.16340 18119 ft 423 kts 357°
2026-04-25 10:59 22.61307 120.16522 18734 ft 435 kts
2026-04-25 10:59 22.64361 120.16880 18981 ft 437 kts
2026-04-25 10:59 22.67357 120.17159 19001 ft 435 kts 360°
2026-04-25 11:00 22.70380 120.17334 19008 ft 436 kts 359°
2026-04-25 11:00 22.73407 120.17528 19036 ft 436 kts
2026-04-25 11:00 22.76430 120.17780 19042 ft 436 kts
2026-04-25 11:00 22.79455 120.18032 19048 ft 436 kts
2026-04-25 11:01 22.82485 120.18255 19052 ft 436 kts 360°
2026-04-25 11:01 22.85510 120.18473 19055 ft 436 kts 360°
2026-04-25 11:01 22.88545 120.18707 19050 ft 437 kts
2026-04-25 11:01 22.91583 120.18944 19053 ft 439 kts 360°
2026-04-25 11:02 22.94632 120.19177 19054 ft 438 kts 360°
2026-04-25 11:02 22.97671 120.19406 19056 ft 438 kts 360°
2026-04-25 11:02 23.00713 120.19638 19060 ft 438 kts 360°
2026-04-25 11:02 23.03757 120.19872 19055 ft 438 kts 360°
2026-04-25 11:03 23.06797 120.20105 19052 ft 438 kts 360°
2026-04-25 11:03 23.09840 120.20337 19052 ft 438 kts 360°
2026-04-25 11:03 23.12875 120.20568 19047 ft 438 kts 360°
2026-04-25 11:03 23.15913 120.20929 19042 ft 439 kts
2026-04-25 11:04 23.18948 120.21281 19042 ft 438 kts
2026-04-25 11:04 23.20961 120.21499 19041 ft 439 kts
2026-04-25 11:04 23.24983 120.21971 19038 ft 439 kts
2026-04-25 11:04 23.27041 120.22226 19041 ft 439 kts
2026-04-25 11:05 23.31062 120.22712 19035 ft 439 kts
2026-04-25 11:05 23.33111 120.22952 19036 ft 439 kts
2026-04-25 11:05 23.37132 120.23427 19037 ft 439 kts
2026-04-25 11:05 23.39185 120.23674 19037 ft 439 kts
2026-04-25 11:06 23.42185 120.24035 19037 ft 439 kts
2026-04-25 11:06 23.45222 120.24397 19039 ft 439 kts
2026-04-25 11:06 23.48255 120.24758 19036 ft 439 kts
2026-04-25 11:06 23.51292 120.25121 19037 ft 438 kts
2026-04-25 11:07 23.54328 120.25485 19038 ft 439 kts
2026-04-25 11:07 23.57372 120.25850 19034 ft 438 kts
2026-04-25 11:07 23.60407 120.26212 19035 ft 438 kts
2026-04-25 11:07 23.63436 120.26575 19033 ft 438 kts
2026-04-25 11:08 23.66464 120.26938 19035 ft 438 kts
2026-04-25 11:08 23.69493 120.27310 19036 ft 438 kts
2026-04-25 11:08 23.72474 120.28112 19032 ft 444 kts 13°
2026-04-25 11:08 23.75383 120.29105 19042 ft 443 kts 13°
2026-04-25 11:09 23.78330 120.30135 19040 ft 444 kts 14°
2026-04-25 11:09 23.81271 120.31161 19041 ft 444 kts 13°
2026-04-25 11:09 23.84220 120.32176 19042 ft 444 kts 13°
2026-04-25 11:09 23.87161 120.33189 19039 ft 443 kts 13°
2026-04-25 11:10 23.90101 120.34209 19038 ft 444 kts 13°
2026-04-25 11:10 23.92053 120.34887 19041 ft 444 kts 13°
2026-04-25 11:10 23.96001 120.36256 19037 ft 444 kts 13°
2026-04-25 11:10 23.98946 120.37276 19038 ft 443 kts 13°
2026-04-25 11:11 24.01887 120.38295 19043 ft 444 kts 14°
2026-04-25 11:11 24.04796 120.39306 19043 ft 443 kts 14°
2026-04-25 11:11 24.07731 120.40326 19050 ft 443 kts 14°
2026-04-25 11:11 24.10671 120.41347 19053 ft 443 kts 14°
2026-04-25 11:12 24.13608 120.42368 19054 ft 442 kts 14°
2026-04-25 11:12 24.16554 120.43393 19054 ft 442 kts 14°
2026-04-25 11:12 24.19491 120.44414 19073 ft 442 kts 14°
2026-04-25 11:12 24.22423 120.45435 19059 ft 442 kts 14°
2026-04-25 11:13 24.25357 120.46457 19064 ft 442 kts 14°
2026-04-25 11:13 24.28278 120.47475 18947 ft 439 kts 14°
2026-04-25 11:13 24.31183 120.48487 18413 ft 438 kts 14°
2026-04-25 11:13 24.34089 120.49500 17629 ft 439 kts 14°
2026-04-25 11:14 24.36994 120.50514 16926 ft 435 kts 14°
2026-04-25 11:14 24.39868 120.51519 16271 ft 431 kts 14°
2026-04-25 11:14 24.42711 120.52512 15634 ft 426 kts 14°
2026-04-25 11:14 24.45519 120.53492 15014 ft 421 kts 15°
2026-04-25 11:15 24.48293 120.54462 14399 ft 416 kts 15°
2026-04-25 11:15 24.51004 120.55411 13786 ft 411 kts 15°